Погода Ново-Иерусалим

Погода Ново-Иерусалим : погода сейчас, прогноз погоды и архив. Всё, что Вы хотите узнать о погоде Ново-Иерусалим!

Поиск расширенной информации на нашем сайте:

Другие новости

Новости СМИ2

Главная страница сайта

Новости сайта

03.07.2017

Напоминаем, что на нашем специализированном сайте Метеоцентр.Азия вы можете получить высокодетализированные автоматические прогнозы погоды по пунктам России, СНГ и мира в авиационном формате (включающие направление и скорость ветра, видимость, явления погоды, количество и форму облачности, нижнюю и верхнюю границу облачности).


Погода Ново-Иерусалим - сегодня

Время (UTC), дата Ветер
(°,м/с) 
Видим.   Явления Облачность Т
(°С)
Тd
(°С)
f(%) Тe
(°С)
Pmin
(гПа)
dP
(гПа)
Po
(мм)
O2
(г/м3)
Тmin Tmax R s Состояние
почвы
00 17.07.18 350 (С) 10 км    6/0 верхняя 
[Ci fib]
+18.9 +16.8 88 +32  1007.7  -0.7  742  276           
21 17.07.18 030 (СВ) 10 км    3/0 верхняя 
[Ci fib]
+21.6 +17.1 76 +35  1004.8  -0.5  740  272           
00 18.07.18 020 (С) 10 км    3/0 верхняя 
[Ci fib]
+19.7 +16.9 84 +34  1004.4  -0.5  740  274           
06 18.07.18 010 (С) 10 км  {ливн. осадки}  10/8 600 м кучево-дожд., средняя 
[Cb calv|Ac trans]
+21.5 +17.5 78 +35  1003.8  -0.2  739  272  +19.2    0.0    сухая 
09 18.07.18 040 (СВ) 10 км    8/8 600 м кучево-дожд. 
[Cb calv]
+23.5 +17 67 +36  1003.2  -0.5  739  270           
21 18.07.18 050 (СВ) 10 км    10/10 600 м кучево-дожд. 
[Cb calv]
+19.8 +17 84 +33  1003.2  0.5  739  274           
00 19.07.18 040 (СВ) 10 км    8/5 600 м средняя, верхняя 
[Sc|Ac trans|Ci fib]
+19.4 +17 86 +33  1002.8  -0.4  738  274           
09 19.07.18 050 (СВ) 10 км    10/10 600 м кучево-дожд. 
[Cb calv]
+21.3 +17 76 +34  1003.1  0.2  739  272           
21 19.07.18 040 (СВ) 10 км  слаб. ливневой дождь  10/10 600 м кучево-дожд. 
[Cb calv]
+19.3 +17.7 90 +34  1002.4  -0.7  738  274           
03 20.07.18 050 (СВ) 4000 м  дымка  10/10 600 м 
[Sc]
+19.3 +17.8 91 +34  1001.2  -0.6  737  273  +19.1       
09 20.07.18 130 (ЮВ) 5{11}  10 км    10/10 600 м кучево-дожд. 
[Cb calv]
+23.6 +18 71 +38  1002.1  738  270           
12 20.07.18 130 (ЮВ) 10 км    8/6 1000 м средняя 
[Cu med, cong|Ac trans]
+25.7 +19.1 67 +43  1002.3  0.3  738  267           
21 20.07.18 130 (ЮВ) 10 км    6/0 верхняя 
[Ci fib]
+19.3 +17.8 91 +35  1004.9  0.4  740  274           
03 21.07.18 тихо ()   4000 м  дымка  10/10 600 м 
[Sc]
+19.1 +18.2 95 +34  1005.9  0.6  741  275  +16.8         
09 21.07.18 090 (В) 10 км    9/9 600 м кучево-дожд. 
[Cb calv]
+23 +18.7 77 +39  1007.2  742  271           
12 21.07.18 090 (В) 10 км    9/6 600 м кучево-дожд., средняя 
[Cb calv|Ac trans]
+25 +18.3 66 +40  1007  -0.1  742  270           
15 21.07.18 100 (В) 10 км    9/3 600 м средняя, верхняя 
[Sc|Ac trans|Ci fib]
+24.8 +17.8 65 +39  1006.5  -0.4  741  270           
21 21.07.18 100 (В) 10 км    3/0 верхняя 
[Ci fib]
+20.3 +17.7 85 +34  1008.2  0.2  742  274           
00 22.07.18 060 (СВ) 10 км    10/10 600 м 
[Sc]
+20.4 +18 86 +35  1008.5  0.2  743  274           
09 22.07.18 060 (СВ) 10 км    10/10 600 м 
[Sc]
+21.9 +17.4 76 +35  1009.2  0.3  743  273           
12 22.07.18 100 (В) 10 км    9/9 600 м 
[Sc]
+23.6 +17.4 68 +37  1008.6  -0.4  743  272           
21 22.07.18 100 (В) 10 км    9/9 600 м 
[Sc]
+18.8 +16.1 84 +31  1010.6  0.8  744  277           
00 23.07.18 060 (СВ) 10 км    10/10 600 м 
[Sc]
+18.3 +16 86 +31  1010.1  -0.5  744  277           
06 23.07.18 060 (СВ) 10 км  слаб. ливневой дождь  10/10 600 м кучево-дожд. 
[Cb calv]
+17.8 +16.2 90 +29  1010.9  0.4  744  278  +17.7    0.3    влажная 
09 23.07.18 090 (В) 10 км  {ливн. осадки}  9/8 600 м кучево-дожд., средняя 
[Cb calv|Ac trans]
+21.1 +15.8 72 +31  1010.6  744  275           
Время (UTC), дата Ветер
(°,м/с) 
Видим.   Явления Облачность Т
(°С)
Тd
(°С)
f(%) Тe
(°С)
Pmin
(гПа)
dP
(гПа)
Po
(мм)
O2
(г/м3)
Тmin Tmax R s Состояние
почвы

Для получения пояснительной информации подведите курсор к названию столбца.

ПОГОДА Ново-Иерусалим - архив

Всё, что Вы хотите узнать о погоде Ново-Иерусалим - удобно и подробно!

Выберите нужную дату (начиная с 1 января 2015* года) и нажмите кнопку "Найти".
Будут отображены архивные сводки погоды по пункту Ново-Иерусалим, начиная с указанной даты.


Отображать данные в формате CSV (для использования в таблицах Excel)


Внимание! Наш архив погоды предназначен исключительно для личного некоммерческого использования в познавательных целях. Если Вам необходимы официальные справки о состоянии погоды (для производственных, юридических, коммерческих и т.п. целей), обращайтесь в органы Росгидромета.

*Примечание: данная дата относится к архиву по метеостанциям СССР (Россия, СНГ, Балтия).
Архив по метеостанциям Зарубежной Европы и Азии (кроме Китая) хранится 10 дней, по другим регионам земного шара (Китай, Африка, Америка, Австралия, Океания) - 1 день.

Ново-Иерусалим - район местоположения метеостанции


Название, широта, долгота, высота метеостанции:
Ново-Иерусалим 55.9°ш. 36.8°д. 162 м над ур. моря [Российская Федерация]

Дополнительная информация

В oтличие oт бoльшинства пoгoдных сайтoв мы публикуем пoдрoбную метеoинфoрмацию в детальнoм прoфессиoнальнoм фoрмате.

Характеристики температуры и влажнoсти вoздуха измеряются на высoте 2 м в тени вдали oт зданий и деревьев.
Скoрoсть ветра измеряется на высoте 10 м (на урoвне рoста челoвека скoрoсть ветра ниже в 1.5-2 раза). Если метеoстанция нахoдится в гoрoде или в лесу, тo скoрoсть ветра занижена на 2-4 м/с пo сравнению с oткрытым местoм. Скoрoсть ветра над акватoриями крупных рек и oзёр, а также на вершинах хoлмoв на 2-5 м/с выше, чем в oбычных услoвиях.
Атмoсфернoе давление в разных тoчках местнoсти мoжет значительнo oтличаться oт давления на метеoстанции, в зависимoсти oт услoвий рельефа (при пoдъёме на 10 м давление пoнижается примернo на 1 мм рт.ст.).